Regional Weather Roundup
Issued by NWS

Home | Current Version | Previous Version | Text Only | Print | Product List | Glossary Off
Versions: 1 2 3 4 5 6 7 8 9 10 11 12 13 14 15 16 17 18 19 20 21 22 23 24 25 26 27 28 29 30 31 32 33 34 35 36 37 38 39 40 41 42 43 44 45 46 47 48 49 50

000
ASUS43 KLOT 010710
RWRIL

ILLINOIS REGIONAL WEATHER ROUNDUP
NATIONAL WEATHER SERVICE CHICAGO/ROMEOVILLE IL
200 AM CDT FRI AUG 01 2014

NOTE: "FAIR" INDICATES FEW OR NO CLOUDS BELOW 12,000 FEET WITH NO
SIGNIFICANT WEATHER AND/OR OBSTRUCTIONS TO VISIBILITY.

* THESE STATIONS ARE NOT UNDER NWS QUALITY CONTROL. THEY ALSO MAY NOT
  REPORT WEATHER SUCH AS PRECIPITATION OR FOG.

ILZ001-002-007-009-015-016-024-010800-
NORTHWEST ILLINOIS

CITY           SKY/WX    TMP DP  RH WIND       PRES   REMARKS
MOLINE         MOCLDY    66  61  84 CALM      30.05S
STERLING*      CLEAR     61  57  88 CALM      30.06R
SAVANNA*       MOCLDY    62  59  90 CALM      30.04S
$$

ILZ003-004-008-010-011-017-018-010800-
NORTH CENTRAL ILLINOIS

CITY           SKY/WX    TMP DP  RH WIND       PRES   REMARKS
ROCKFORD       CLEAR     62  57  83 S3        30.07R
FREEPORT*      CLEAR     65  60  84 SW6       30.07S
ROCHELLE*      CLEAR     56  55  93 CALM      30.06S
DE KALB*       CLEAR     63  56  80 W6        30.07R
PERU*          PTCLDY    65  62  89 SW5       30.06S
$$

ILZ005-006-012>014-019>023-010800-
NORTHEAST ILLINOIS

CITY           SKY/WX    TMP DP  RH WIND       PRES   REMARKS
CHICAGO-OHARE  CLEAR     66  57  72 W5        30.04S
CHICAGO-MIDWAY CLEAR     71  62  73 SW5       30.05S
AURORA         FOG       58  55  90 CALM      30.06S VSB 3/4
LANSING*       CLEAR     63  60  91 CALM      30.06S
JOLIET*        FOG       60  58  95 CALM      30.07R VSB 3/4
WAUKEGAN       MOCLDY    66  57  72 CALM      30.03S
DUPAGE AIRPORT CLEAR     63  59  87 CALM      30.05S
KANKAKEE*      CLEAR     63  60  88 CALM      30.07S
WHEELING       CLEAR     66  59  78 CALM      30.05F
MORRIS*        CLEAR     64  64 100 SW3       30.05S
ROMEOVILLE*    CLEAR     62  60  93 S3        30.06S
NORTHERLY ISL    N/A     71  60  68 W2          N/A
$$

LMZ740>746-010800-
SOUTHERN LAKE MICHIGAN

STATION/POSITION SKY/WX   TEMP    WIND        PRES    VSBY  WAVE
                          AIR SEA DIR/SP/G                  HT/PER
                          (F)     (DEG/KT/KT) (MB)    (MI)  (FT/S)
SOUTHERN BUOY              65 63  240/  8/  8 1016.6F         0
WAUKEGAN HARBOR            69     260/  8/ 10   N/A
HARRISON CRIB              73     250/  8/ 10   N/A
BURNHAM HARBOR             71     210/  4/  4   N/A
CALUMET HARBOR             70     220/  3/  4 1016.3S
MICHIGAN CITY              69     180/  8/  9   N/A
MICHIGAN CITY 6N           69 70  200/  6/  8   N/A           1
ST. JOSEPH                 69 69  160/  6/  8   N/A           1
$$

ILZ025>027-034>036-040-047-049-050-058-095>099-010800-
WEST-CENTRAL ILLINOIS

CITY           SKY/WX    TMP DP  RH WIND       PRES   REMARKS
QUINCY         CLEAR     64  60  87 CALM      30.06F
GALESBURG*     CLOUDY    63  61  94 CALM      30.07S
MACOMB*        CLOUDY    63  61  94 CALM      30.08S
JACKSONVILLE*  CLEAR     62  60  91 CALM      30.08S
PITTSFIELD*    CLEAR     61  58  91 CALM      30.08S
$$

ILZ028>032-037-038-041>044-048-051>054-059>061-010800-
CENTRAL ILLINOIS

CITY           SKY/WX    TMP DP  RH WIND       PRES   REMARKS
PONTIAC        CLEAR     61  61 100 CALM      30.07S FOG
DECATUR        PTCLDY    61  57  87 CALM      30.07F
PEORIA         MOCLDY    67  61  81 CALM      30.07R
LACON*         CLEAR     62  60  92 CALM      30.05S
LINCOLN*       PTCLDY    64  61  91 CALM      30.05S
SPRINGFIELD    PTCLDY    62  60  93 CALM      30.08R
TAYLORVILLE    CLEAR     61  59  94 SE5       30.07S
$$

ILZ033-039-045-046-055>057-062-063-010800-
EAST-CENTRAL ILLINOIS

CITY           SKY/WX    TMP DP  RH WIND       PRES   REMARKS
CHAMPAIGN      CLEAR     63  61  93 CALM      30.08S
DANVILLE*      CLEAR     56  56  97 CALM      30.05S FOG
RANTOUL*       PTCLDY    62  59  91 CALM      30.09S FOG
MATTOON        CLOUDY    65  61  87 S3        30.07S
PARIS*         CLEAR     58  57  98 CALM      30.08S
$$

ILZ079-100>102-010800-
SOUTHWEST ILLINOIS

CITY           SKY/WX    TMP DP  RH WIND       PRES   REMARKS
ALTON          CLEAR     63  63 100 CALM      30.06F
BELLEVILLE     FOG       64  64 100 CALM      30.05F VSB 1
CAHOKIA*       CLEAR     64  62  93 CALM      30.06F
SPARTA*        PTCLDY    64  63  94 CALM      30.07F
$$

ILZ064>066-069>071-074>076-080>082-084>086-088>090-092>094-010800-
SOUTH-CENTRAL ILLINOIS

CITY           SKY/WX    TMP DP  RH WIND       PRES   REMARKS
CARBONDALE     CLEAR     63  61  93 CALM      30.07S
CAIRO*         CLEAR     63  61  92 CALM      30.07S FOG
EFFINGHAM*     CLEAR     63  59  87 CALM      30.08S
MARION         CLEAR     66  64  94 CALM      30.08S FOG
MT. VERNON     CLEAR     61  55  82 CALM      30.08S
CENTRALIA*     CLEAR     59  57  93 CALM      30.07S
SALEM*         CLEAR     63  62  96 CALM      30.08S
METROPOLIS*    PTCLDY    61  60  96 CALM      30.06F FOG
$$

ILZ067-068-072-073-078-083-087-091-010800-
SOUTHEAST ILLINOIS

CITY           SKY/WX    TMP DP  RH WIND       PRES   REMARKS
LAWRENCEVILLE  CLEAR     63  62  97 CALM      30.07F FOG
FLORA*         CLEAR     60  59  97 CALM      30.07F
FAIRFIELD*     CLEAR     61  61 100 CALM      30.07S FOG
HARRISBURG*    CLEAR     63  63 100 CALM      30.08S FOG
ROBINSON*      CLEAR     60  59  97 CALM      30.08F FOG
CARMI*         CLEAR     63  63 100 CALM      30.07S FOG
$$

ABBREVIATIONS USED IN REMARKS
   TC - TEMPERATURE IN CELSIUS
  WCI - WIND CHILL INDEX
   HX - HEAT INDEX
  VSB - VISIBILITY
$$



USA.gov is the U.S. government's official web portal to all federal, state and local government web resources and services.